greek

ΠΛΗΡΟΦΟΡΙΕΣ ΚΑΙΡΟΥ

english


LGTT 061200Z 13005KT 9999 FEW030 32/18 Q1009
TAF LGTT 061000Z 0612/0621 VRB05KT 9999 FEW025 TEMPO 0612/0618 FEW018TCU BKN030 PROB30 TEMPO 0612/0618 5000 SHRA FEW018CB BKN030 BECMG 0612/0614 20010KT BECMG 0616/0618 VRB05KT

 Print LGTT local weather
 EMY AVIATION
 EMY LGTT
 Forecast LGTT
 EMY LGMG
 EMY LGEL
 EMY LGTG
 EMY LGAV
 EMY LGAT
 Latest METAR Reports (OGIMET)
 Latest TAF Reports (OGIMET)
 Greece Forecast
 www.windyty.com
 www.meteo.gr
 SAT 24h
 UK Met Office
 www.kifissiameteo.gr
 forecast.uoa.gr
 www.ntua.gr/weather/
 www.autorouter.eu/gramet
 http://www.jetplan.com/jeppesen/

Στο τηλέφωνο 210-3533689 μπορείτε να πάρετε πληροφορίες για την πτήση σας σε οποιοδήποτε σημείο της χώρας.